Regional Weather Roundup
Issued by NWS

Home | Current Version | Previous Version | Text Only | Print | Product List | Glossary On
Versions: 1 2 3 4 5 6 7 8 9 10 11 12 13 14 15 16 17 18 19 20 21 22 23 24 25 26 27 28 29 30 31 32 33 34 35 36 37 38 39 40 41 42 43 44 45 46 47 48 49 50
000
ASUS45 KCYS 201810
RWRWY

WYOMING REGIONAL WEATHER ROUNDUP
NATIONAL WEATHER SERVICE CHEYENNE WY
1200 PM MDT FRI OCT 20 2017

NOTE:  "FAIR" INDICATES FEW OR NO CLOUDS BELOW 12,000 FEET
WITH NO SIGNIFICANT WEATHER AND/OR OBSTRUCTIONS TO VISIBILITY.

WYZ001-201900-
YELLOWSTONE NATIONAL PARK

CITY           SKY/WX    TMP DP  RH WIND       PRES   REMARKS
LK YELLOWSTONE   N/A     38  36  92 W9G20     29.62R WCI  31
6HR MIN TEMP:  24; 6HR MAX TEMP:  48;

W YELLOWSTONE  NOT AVBL

$$
WYZ002>013-054>058-071-098>099-201900-
NORTHERN WYOMING

CITY           SKY/WX    TMP DP  RH WIND       PRES   REMARKS
JACKSON        CLOUDY    47  38  71 S15G24    29.60R
CODY           FAIR      67  30  25 SW8       29.42F
GREYBULL       FAIR      68  32  26 S22G30    29.39F
6HR MIN TEMP:  34; 6HR MAX TEMP:  68;

WORLAND        FAIR      70  35  27 S13G22    29.43F
6HR MIN TEMP:  43; 6HR MAX TEMP:  70;

SHERIDAN       FAIR      76  30  18 S5        29.36F
6HR MIN TEMP:  39; 6HR MAX TEMP:  77;

BUFFALO        FAIR      74  24  15 SW21G28   29.44F
6HR MIN TEMP:  52; 6HR MAX TEMP:  74;

GILLETTE         N/A     73  33  23 SW28G37   29.42F
6HR MIN TEMP:  57; 6HR MAX TEMP:  73;

HULETT         FAIR      73  34  23 S23G35    29.43F
NEWCASTLE      FAIR      70  32  24 SE9       29.52F

$$
WYZ014>020-022>026-101>103-201900-
CENTRAL WYOMING

CITY           SKY/WX    TMP DP  RH WIND       PRES   REMARKS
BIG PINEY      FAIR      61  25  25 W29G43    29.62F
6HR MIN TEMP:  30; 6HR MAX TEMP:  61;

PINEDALE       FAIR      59  27  29 SW18G28   29.63F
DUBOIS         FAIR      55  28  35 S14G36    29.54F
LANDER         FAIR      67  27  22 SW25G37   29.51F
6HR MIN TEMP:  42; 6HR MAX TEMP:  68;

RIVERTON       FAIR      66  28  24 SW22G30   29.51F
6HR MIN TEMP:  36; 6HR MAX TEMP:  66;

CASPER         FAIR      69  31  24 SW30G41   29.54F
6HR MIN TEMP:  49; 6HR MAX TEMP:  69; 6HR PCP: TRACE;

DOUGLAS        FAIR      74  33  22 W25G33    29.55F
6HR MIN TEMP:  46; 6HR MAX TEMP:  74;


$$
WYZ021-027>030-104>119-201900-
SOUTHERN WYOMING

CITY           SKY/WX    TMP DP  RH WIND       PRES   REMARKS
EVANSTON       FAIR      60  24  25 SW33G46   29.67F
6HR MIN TEMP:  46; 6HR MAX TEMP:  61;

KEMMERER       FAIR      55  21  26 SW31G43   29.66F
FORT BRIDGER   MOCLDY    63  22  21 SW31G45   29.70F
ROCK SPRINGS   FAIR      62  23  22 SW29G37   29.65F
6HR MIN TEMP:  46; 6HR MAX TEMP:  63;

DIXON          MOCLDY    65  30  27 SW26G37   29.74S
RAWLINS        FAIR      64  29  26 SW36G52   29.68F
6HR MIN TEMP:  47; 6HR MAX TEMP:  64;

SARATOGA       FAIR      63  30  29 SW32G44   29.69F
LARAMIE        FAIR      63  30  28 SW24G37   29.71F
6HR MIN TEMP:  39; 6HR MAX TEMP:  64;

CHEYENNE       FAIR      70  31  23 S16       29.67F
6HR MIN TEMP:  45; 6HR MAX TEMP:  70;

TORRINGTON     FAIR      70  36  28 SE7       29.57F
6HR MIN TEMP:  34; 6HR MAX TEMP:  71;

PINE BLUFFS    FAIR      72  30  21 SW10G18   29.66F

$$



USA.gov is the U.S. government's official web portal to all federal, state and local government web resources and services.